sat.trackr.live / text

‹ back to catalog

STARLINK-32883

NORAD 62806 · 2025-018A

PAYLOAD ACTIVE UNKNOWN

§ Identity

Operator
Country
US
Launch date
2025-01-24
Launch site
AFWTR
Launch vehicle
Mass (kg)
RCS (m²)

Purposes: comms

External: N2YO · Heavens-Above · Gunter

§ Orbital elements

Epoch: 2026-09-21T19:29:45.120192Z

Period
93.85 min
Inclination
53.1575°
Eccentricity
0.0001302
Mean motion
15.34392712 rev/d
Perigee alt
461.8 km
Apogee alt
463.6 km
Semi-major
6,840.9 km
B*
4.0144e-4
RAAN
115.2331°
Arg perigee
101.8119°
Mean anomaly
258.3029°
Rev number
9,416

§ Raw data

STARLINK-328831 62806U 25018A   26264.81232778  .00013208  00000+0  40144-3 0  99952 62806  53.1575 115.2331 0001302 101.8119 258.3029 15.34392712 94169

JSON: /api/v1/satellites/62806 · /tle

For live sub-satellite position, see the globe view (requires WebGL).

§ Visibility from observer

Set your observer location to see the next 7 days of passes ≥ 10°. The values pass through the URL so the page stays shareable.

No JS? Fill the form by hand. The geolocation button needs JavaScript.